Location: Camaret
(48.2753°N, 4.5961°W)
Time: 12:08:12
(UTC+00:00)

X-37B - Pass Details

Date: 31 January 2021
Orbit: 383 x 391 km, 45.0° (Epoch: 27 February)

Event Time Altitude Azimuth Distance (km) Brightness Sun altitude
Rises 18:00:21 0° 272° (W) 2,272 6.1 -7.6°
Reaches altitude 10° 18:02:40 10° 257° (WSW) 1,416 5.2 -8.0°
Maximum altitude 18:05:15 23° 203° (SSW) 887 2.9 -8.4°
Drops below altitude 10° 18:07:50 10° 148° (SSE) 1,415 3.3 -8.8°
Sets 18:10:10 0° 133° (SE) 2,269 4.2 -9.2°
